2021-033H (48255 NORAD) Tracking and Keplerian Element Data

This shows tracking and keplerian element data for the satellite.

Feedback or suggestion? Click here.




ElementValue
Catalog48255
Name2021-033H
Epoch Orbit457
Epoch Day147.31861146
Epoch Year2021
RAAN222.6575
Inclination97.3967
Eccentricity0.0011872
Argument of Perigee164.2571
Mean Anonmoly264.0205
Mean Motion15.2146522
Decay Rate1.827E-05
L11 48255U 21033H 21147.31861146 .00001827 00000-0 84224-4 0 9990
L22 48255 97.3967 222.6575 0011872 164.2571 264.0205 15.21465220 4574

Live tracking and technical data element details for 2021-033H (NORAD 48255). 2021-033H can be tracked NOW for your location showing map with azimuth and elevation plus other details from your city location.

Track the satellite on the map from your city or location and see movement details for azimuth, elevation, latitude, longitude, range, height, and movement on the map or in text.







IsCatalogInMostPopularTable: catalog: 48255, numindb: 35
Update: records affected: 1



GetName: 48255 2021-033H

Hit Count: updated at: Wed, 04 Aug 2021 00:04:43 GMT